,

(GMT )
Manston

Weather History for EGMH - December, 2013

Change the Weather History Date:

Wednesday, December 18, 2013

  Actual Average Record
Temperature  
Mean Temperature 46 °F -  
Max Temperature 49 °F - - ()
Min Temperature 42 °F - - ()
Degree Days  
Heating Degree Days 20    
Moisture  
Dew Point 44 °F    
Average Humidity 89    
Maximum Humidity 100    
Minimum Humidity 80    
Precipitation  
Precipitation 0.24 in - - ()
Sea Level Pressure  
Sea Level Pressure 29.84 in    
Wind  
Wind Speed 14 mph ()    
Max Wind Speed 31 mph    
Max Gust Speed 40 mph    
Visibility 8.7 miles    
Events Rain    
T = Trace of Precipitation, MM = Missing Value Source: Averaged Metar Reports

Daily Weather History Graph

Daily Weather History Graph

Search for Another Location

Airport or City:

Astronomy

Dec. 18, 2013 Rise Set
Actual Time 7:55 AM GMT 3:47 PM GMT
Civil Twilight 7:15 AM GMT 4:27 PM GMT
Nautical Twilight 6:32 AM GMT 5:10 PM GMT
Astronomical Twilight 5:51 AM GMT 5:50 PM GMT
Moon 5:15 PM GMT (12/18) 8:15 AM GMT (12/18)
Length of Visible Light 9h 12m
Length of Day
7h 51m
Full, 99% of the Moon is Illuminated
Dec 18
Full
Dec 25
Last Quarter
Jan 1
New
Jan 8
First Quarter
Jan 16
Full

Hourly Weather History & Observations

Time (GMT) Temp. Windchill Dew Point Humidity Pressure Visibility Wind Dir Wind Speed Gust Speed Precip Events Conditions
12:00 AM 46 °F - 46 °F 99% 30.01 in 3 mi SSE 9.2 mph - -   Mist
12:20 AM 46.4 °F 42.4 °F 46.4 °F 100% 29.98 in 2.8 mi South 8.1 mph - N/A   Mostly Cloudy
1:00 AM 48 °F - 48 °F 98% 29.99 in 3 mi SSW 9.2 mph - -   Mist
2:00 AM 48 °F - 48 °F 98% 29.97 in 7 mi SSW 11.5 mph - -   Scattered Clouds
3:00 AM 47 °F - 47 °F 98% 29.99 in 9 mi SSW 11.5 mph - -   Mostly Cloudy
4:00 AM 47 °F - 46 °F 94% 29.97 in 22 mi SSW 8.1 mph - -   Scattered Clouds
5:00 AM 46 °F - 45 °F 96% 29.98 in 19 mi WSW 13.8 mph - -   Scattered Clouds
5:20 AM 46.4 °F 40.7 °F 42.8 °F 87% 29.98 in - WSW 12.7 mph - N/A   Clear
5:50 AM 44.6 °F 38.8 °F 42.8 °F 93% 29.98 in - WSW 11.5 mph - N/A   Clear
6:00 AM 45 °F - 43 °F 89% 30.01 in 25 mi WSW 12.7 mph - -  
6:20 AM 44.6 °F 39.2 °F 41.0 °F 87% 30.01 in - WSW 10.4 mph - N/A   Clear
6:50 AM 44.6 °F 39.7 °F 41.0 °F 87% 30.01 in - WSW 9.2 mph - N/A   Clear
7:00 AM 44 °F - 42 °F 89% 30.01 in 28 mi SW 10.4 mph - -   Overcast
7:20 AM 42.8 °F 39.3 °F 41.0 °F 93% 30.01 in 6.2 mi SSW 5.8 mph - N/A   Partly Cloudy
7:50 AM 44.6 °F 39.7 °F 42.8 °F 93% 30.01 in 6.2 mi SSW 9.2 mph - N/A   Partly Cloudy
8:00 AM 43 °F - 42 °F 96% 30.01 in 16 mi South 8.1 mph - -   Mostly Cloudy
8:20 AM 44.6 °F 38.8 °F 42.8 °F 93% 29.98 in 6.2 mi SSW 11.5 mph - N/A   Partly Cloudy
8:50 AM 46.4 °F 40.7 °F 42.8 °F 87% 29.98 in 6.2 mi South 12.7 mph - N/A   Partly Cloudy
9:00 AM 45 °F - 44 °F 95% 30.00 in 17 mi South 12.7 mph - -   Mostly Cloudy
9:20 AM 46.4 °F 39.8 °F 42.8 °F 87% 29.98 in 6.2 mi SSW 16.1 mph - N/A   Partly Cloudy
9:50 AM 48.2 °F - 44.6 °F 87% 29.98 in 6.2 mi SSW 15.0 mph - N/A   Partly Cloudy
10:00 AM 47 °F - 45 °F 88% 29.98 in 17 mi South 15.0 mph - -   Scattered Clouds
10:20 AM 48.2 °F - 44.6 °F 87% 29.98 in 6.2 mi South 15.0 mph - N/A   Partly Cloudy
10:50 AM 48.2 °F - 44.6 °F 87% 29.95 in 6.2 mi SSW 20.7 mph - N/A   Scattered Clouds
11:00 AM 48 °F - 45 °F 87% 29.96 in 19 mi SSW 17.3 mph - -   Scattered Clouds
11:20 AM 48.2 °F - 46.4 °F 93% 29.92 in 6.2 mi SSW 23.0 mph - N/A   Mostly Cloudy
11:50 AM 48.2 °F - 46.4 °F 93% 29.92 in 6.2 mi South 19.6 mph - N/A   Mostly Cloudy
12:00 PM 49 °F - 46 °F 85% 29.92 in 15 mi South 21.9 mph - -   Scattered Clouds
12:20 PM 48.2 °F - 46.4 °F 93% 29.89 in 6.2 mi South 20.7 mph - N/A   Mostly Cloudy
12:50 PM 48.2 °F - 44.6 °F 87% 29.86 in 6.2 mi SSW 20.7 mph - N/A   Mostly Cloudy
1:00 PM 49 °F - 46 °F 83% 29.88 in 19 mi SSW 20.7 mph - -   Mostly Cloudy
1:20 PM 48.2 °F - 44.6 °F 87% 29.83 in 6.2 mi SSW 21.9 mph - N/A   Mostly Cloudy
1:50 PM 48.2 °F - 44.6 °F 87% 29.83 in 6.2 mi South 21.9 mph 33.4 mph N/A   Mostly Cloudy
2:00 PM 48 °F - 45 °F 86% 29.84 in 18 mi South 23.0 mph - -   Mostly Cloudy
2:20 PM 48.2 °F - 44.6 °F 87% 29.80 in 6.2 mi South 17.3 mph - N/A   Mostly Cloudy
2:50 PM 48.2 °F - 44.6 °F 87% 29.80 in 6.2 mi South 20.7 mph - N/A   Mostly Cloudy
3:00 PM 48 °F - 45 °F 85% 29.81 in 25 mi South 19.6 mph - -   Mostly Cloudy
3:20 PM 48.2 °F - 44.6 °F 87% 29.77 in 6.2 mi South 18.4 mph 31.1 mph N/A   Scattered Clouds
3:50 PM 48.2 °F - 44.6 °F 87% 29.74 in 6.2 mi South 20.7 mph - N/A   Scattered Clouds
4:00 PM 47 °F - 44 °F 86% 29.76 in 19 mi South 21.9 mph - -   Partly Cloudy
4:20 PM 46.4 °F 38.7 °F 42.8 °F 87% 29.71 in 6.2 mi South 20.7 mph - N/A   Partly Cloudy
4:50 PM 48.2 °F - 44.6 °F 87% 29.71 in 6.2 mi South 27.6 mph 39.1 mph N/A   Scattered Clouds
5:00 PM 47 °F - 44 °F 87% 29.73 in 18 mi South 26.5 mph - -   Scattered Clouds
5:20 PM 48.2 °F - 42.8 °F 82% 29.68 in 6.2 mi South 26.5 mph - N/A   Mostly Cloudy
5:50 PM 48.2 °F - 42.8 °F 82% 29.65 in 6.2 mi South 25.3 mph - N/A   Mostly Cloudy
6:00 PM 48 °F - 44 °F 80% 29.68 in 17 mi South 25.3 mph - -   Mostly Cloudy
6:20 PM 48.2 °F - 42.8 °F 82% 29.62 in 6.2 mi South 31.1 mph - N/A   Scattered Clouds
6:50 PM 48.2 °F - 44.6 °F 87% 29.59 in 6.2 mi South 25.3 mph 36.8 mph N/A   Scattered Clouds
7:00 PM 48 °F - 44 °F 82% 29.62 in 15 mi South 25.3 mph - -   Mostly Cloudy
7:20 PM 48.2 °F - 42.8 °F 82% 29.56 in 6.2 mi South 25.3 mph - N/A   Mostly Cloudy
7:50 PM 46.4 °F 37.9 °F 44.6 °F 93% 29.53 in 5.6 mi South 25.3 mph 40.3 mph N/A Rain Rain
8:00 PM 47 °F - 45 °F 89% 29.55 in 8 mi South 28.8 mph - - Rain Light Rain Showers
8:20 PM 48.2 °F - 44.6 °F 87% 29.50 in 5.0 mi South 24.2 mph 38.0 mph N/A Rain Rain
9:00 PM 47 °F - 46 °F 95% 29.50 in 3 mi South 27.6 mph - - Rain Light Rain Showers
10:00 PM 47 °F - 46 °F 94% 29.47 in 3 mi South 29.9 mph - - Rain Rain
11:00 PM 47 °F - 46 °F 94% 29.42 in 4 mi South 29.9 mph - - Rain Rain